Regional Weather Roundup
Issued by NWS

Home | Current Version | Previous Version | Text Only | Print | Product List | Glossary Off
Versions: 1 2 3 4 5 6 7 8 9 10 11 12 13 14 15 16 17 18 19 20 21 22 23 24 25 26 27 28 29 30 31 32 33 34 35 36 37 38 39 40 41 42 43 44 45 46 47 48 49 50

347
ASUS43 KFSD 251402
RWRSD

WEATHER ROUNDUP FOR SOUTH DAKOTA
NATIONAL WEATHER SERVICE SIOUX FALLS SD
900 AM CDT SUN SEP 25 2016

NOTE: "FAIR" INDICATES FEW OR NO CLOUDS BELOW 12,000 FEET WITH NO
SIGNIFICANT WEATHER AND/OR OBSTRUCTIONS TO VISIBILITY.


SDZ001>005-009-010-012>017-251500-
NORTHWEST AND NORTH CENTRAL SOUTH DAKOTA

CITY           SKY/WX    TMP DP  RH WIND       PRES   REMARKS
BUFFALO          N/A     47  38  71 W24       30.19R
FAITH            N/A     50  40  68 NW31G43   30.17R
MOBRIDGE       CLOUDY    56  44  64 NW24G38   30.01R
$$

SDZ012>016-024>037-041>051-057-063-072>074-251500-
SOUTHWEST AND SOUTH CENTRAL SOUTH DAKOTA

CITY           SKY/WX    TMP DP  RH WIND       PRES   REMARKS
RAPID CTY ARPT SUNNY     52  31  44 NW26G35   30.29R
PIERRE         SUNNY     57  44  62 NW30G43   30.07R
CUSTER         SUNNY     42  26  53 W10G18    30.34R
ELLSWORTH AFB  SUNNY     51  35  53 NW29G39   30.28R
PHILIP         SUNNY     53  41  63 W21G28    30.21R
PINE RIDGE     SUNNY     49  43  80 NW8       30.32R
WINNER         FAIR      59  45  59 W21G33    30.13R
$$

SDZ004>011-016>023-039-040-251500-
NORTHEAST SOUTH DAKOTA

CITY           SKY/WX    TMP DP  RH WIND       PRES   REMARKS
ABERDEEN       CLOUDY    57  49  74 W16G31    29.92R
WATERTOWN      CLOUDY    55  51  86 W16G24    29.90R
SISSETON         N/A     58  53  84 NW12      29.83R
$$

SDZ017-020-022-023-036>040-048>070-251500-
SOUTHEAST SOUTH DAKOTA

CITY           SKY/WX    TMP DP  RH WIND       PRES   REMARKS
SIOUX FALLS    CLOUDY    57  49  74 W10G17    29.99S
HURON          CLOUDY    57  47  69 NW24G33   29.97S
CHAMBERLAIN    CLOUDY    58  46  63 W29G36    30.09R
MITCHELL       CLOUDY    59  47  64 W23G33    30.02R
YANKTON        PTSUNNY   57  46  67 W15       30.05R
$$

ABBREVIATIONS USED IN REMARKS
   TC - TEMPERATURE IN CELSIUS
  WCI - WIND CHILL INDEX
   HX - HEAT INDEX
  VSB - VISIBILITY





USA.gov is the U.S. government's official web portal to all federal, state and local government web resources and services.